Date String (YYYY-MM-DD hh:mm:ss) UTC,Instrument flags,absolute air pressure of the measurement (hPa),sample flow rate (lpm),inlet stack bypass flow (lpm),air temperature of the measurement (°C),ambient temperature measured by the external sensor (°C),aerosol sample conditioner tube jacket temperature (°C),OPC LED temperature (°C),internal box temperature (°C),relative humidity of the measurement (%),span deviation,mass concentration of particles derived from Lorenz-Mie calculation of OPC scattering (μg/m³),mass concentration of particles derived from Lorenz-Mie calculation of OPC scattering (μg/m³),mass concentration of particles derived from Lorenz-Mie calculation of OPC scattering (μg/m³)
DateTimeUTC,F1_M11,P_M11,Q1_M11,Q2_M11,T1_M11,T2_M11,T3_M11,T4_M11,T5_M11,U1_M11,ZSPAN_M11,X0_M11,X2_M11,X1_M11
2023-09-30 15:00:00,SystemResetWarning,0829.2,5.01,000.00,029.3,028.1,000.0,037.7,031.0,16.5,0000.0,0015.78,0006.15,0004.91
2023-09-30 15:01:00,SystemResetWarning,0829.2,5.00,000.00,029.3,028.1,000.0,037.7,031.0,16.8,0000.0,0015.28,0006.11,0004.91
2023-09-30 15:02:00,SystemResetWarning,0829.2,5.00,000.00,029.3,028.1,000.0,037.7,031.0,16.9,0000.0,0014.75,0006.08,0004.90
2023-09-30 15:03:00,SystemResetWarning,0829.2,5.00,000.00,029.3,028.1,000.0,037.7,031.1,17.2,0000.0,0013.71,0006.08,0004.89
2023-09-30 15:04:00,SystemResetWarning,0829.2,5.00,000.00,029.4,028.1,000.0,037.7,031.1,17.3,0000.0,0014.03,0006.06,0004.88
2023-09-30 15:05:00,SystemResetWarning,0829.2,4.98,000.00,029.4,027.3,000.0,037.7,031.1,17.4,0000.0,0014.59,0006.11,0004.89
2023-09-30 15:06:00,SystemResetWarning,0829.1,5.01,000.00,029.3,025.2,000.0,037.6,030.8,17.6,0000.0,0014.58,0006.11,0004.88
2023-09-30 15:07:00,SystemResetWarning,0829.1,5.01,000.00,029.2,024.3,000.0,037.6,030.6,18.0,0000.0,0014.61,0006.14,0004.89
2023-09-30 15:08:00,SystemResetWarning,0829.2,5.01,000.00,029.1,024.4,000.0,037.5,030.3,18.3,0000.0,0015.46,0006.13,0004.88
2023-09-30 15:09:00,SystemResetWarning,0829.2,5.00,000.00,028.9,024.7,000.0,037.5,030.2,18.4,0002.3,0015.90,0006.08,0004.88
2023-09-30 15:10:00,SystemResetWarning,0829.2,5.00,000.00,028.8,025.2,000.0,037.5,030.2,18.0,0003.2,0016.11,0006.11,0004.88
2023-09-30 15:11:00,SystemResetWarning,0829.2,5.00,000.00,028.8,025.6,000.0,037.5,030.2,18.0,0003.5,0016.92,0006.13,0004.88
2023-09-30 15:12:00,SystemResetWarning,0829.1,5.00,000.00,028.8,026.0,000.0,037.5,030.3,17.8,0003.3,0017.74,0006.12,0004.87
2023-09-30 15:13:00,SystemResetWarning,0829.1,5.00,000.00,028.7,026.3,000.0,037.4,030.3,18.0,0003.4,0019.81,0006.13,0004.87
2023-09-30 15:14:00,SystemResetWarning,0829.1,5.00,000.00,028.7,026.5,000.0,037.4,030.3,18.0,0003.1,0021.16,0006.10,0004.86
2023-09-30 15:15:00,SystemResetWarning,0829.2,5.00,000.00,028.8,026.7,000.0,037.4,030.4,17.6,0002.5,0021.20,0006.07,0004.87
2023-09-30 15:16:00,SystemResetWarning,0829.2,5.00,000.00,028.8,026.9,000.0,037.4,030.4,17.5,0002.5,0020.85,0006.08,0004.86
2023-09-30 15:17:00,SystemResetWarning,0829.2,5.00,000.00,028.8,027.1,000.0,037.4,030.5,17.5,0002.3,0020.34,0006.05,0004.87
2023-09-30 15:18:00,SystemResetWarning,0829.2,5.00,000.00,028.8,027.2,000.0,037.4,030.5,17.3,0002.3,0019.93,0005.99,0004.86
2023-09-30 15:19:00,SystemResetWarning,0829.2,5.00,000.00,028.8,027.3,000.0,037.4,030.5,17.0,0002.7,0019.13,0006.00,0004.88
2023-09-30 15:20:00,SystemResetWarning,0829.2,4.99,000.00,028.8,027.4,000.0,037.4,030.6,17.0,0001.4,0018.42,0005.99,0004.88
2023-09-30 15:21:00,SystemResetWarning,0829.1,4.99,000.00,028.9,027.5,000.0,037.4,030.6,17.3,0000.0,0018.44,0005.99,0004.88
2023-09-30 15:22:00,SystemResetWarning,0829.1,4.99,000.00,028.9,027.6,000.0,037.4,030.6,17.3,0000.0,0019.57,0005.98,0004.87
2023-09-30 15:23:00,SystemResetWarning,0829.1,5.00,000.00,028.9,027.6,000.0,037.4,030.6,17.0,0000.0,0018.90,0005.99,0004.88
2023-09-30 15:24:00,SystemResetWarning,0829.2,5.00,000.00,028.9,027.7,000.0,037.4,030.7,16.8,0000.0,0017.11,0006.01,0004.89
2023-09-30 15:25:00,SystemResetWarning,0829.3,5.01,000.00,029.0,027.7,000.0,037.4,030.7,16.9,0000.0,0016.55,0006.09,0004.90
2023-09-30 15:26:00,SystemResetWarning,0829.3,5.00,000.00,029.0,027.8,000.0,037.4,030.7,17.1,0000.0,0016.62,0006.14,0004.91
2023-09-30 15:27:00,SystemResetWarning,0829.2,5.00,000.00,029.0,027.8,000.0,037.4,030.8,17.2,0000.0,0016.43,0006.08,0004.90
2023-09-30 15:28:00,SystemResetWarning,0829.2,5.00,000.00,029.0,027.9,000.0,037.4,030.8,17.3,0000.0,0016.45,0006.09,0004.90
2023-09-30 15:29:00,SystemResetWarning,0829.2,5.01,000.00,029.1,027.9,000.0,037.5,030.8,17.0,0000.0,0017.99,0006.09,0004.89
2023-09-30 15:30:00,SystemResetWarning,0829.2,5.01,000.00,029.1,027.9,000.0,037.5,030.8,16.5,0000.0,0018.10,0006.09,0004.89
2023-09-30 15:31:00,SystemResetWarning,0829.3,5.00,000.00,029.1,028.0,000.0,037.5,030.9,17.3,0000.0,0017.65,0006.12,0004.89
2023-09-30 15:32:00,SystemResetWarning,0829.4,5.00,000.00,029.1,028.0,000.0,037.5,030.9,17.7,0000.0,0017.57,0006.13,0004.88
2023-09-30 15:33:00,SystemResetWarning,0829.4,4.99,000.00,029.2,028.0,000.0,037.5,030.9,17.9,0000.0,0015.72,0006.15,0004.87
2023-09-30 15:34:00,SystemResetWarning,0829.3,5.01,000.00,029.2,028.1,000.0,037.6,030.9,17.7,0000.0,0015.40,0006.18,0004.86
2023-09-30 15:35:00,SystemResetWarning,0829.3,5.01,000.00,029.2,028.1,000.0,037.6,031.0,17.6,0000.0,0015.18,0006.17,0004.86
2023-09-30 15:36:00,SystemResetWarning,0829.2,5.00,000.00,029.2,027.9,000.0,037.6,031.0,17.5,0000.0,0014.65,0006.13,0004.84
2023-09-30 15:37:00,SystemResetWarning,0829.2,5.00,000.00,029.2,026.4,000.0,037.5,030.9,17.4,0000.0,0013.95,0006.07,0004.83
2023-09-30 15:38:00,SystemResetWarning,0829.2,5.00,000.00,029.1,024.9,000.0,037.5,030.6,17.3,0000.0,0013.70,0006.07,0004.83
2023-09-30 15:39:00,SystemResetWarning,0829.2,5.00,000.00,029.0,024.8,000.0,037.4,030.5,17.1,0000.0,0014.60,0006.14,0004.85
2023-09-30 15:40:00,SystemResetWarning,0829.2,5.01,000.00,028.9,025.1,000.0,037.4,030.3,17.0,0000.0,0013.67,0006.17,0004.86
2023-09-30 15:41:00,SystemResetWarning,0829.1,5.00,000.00,028.8,025.5,000.0,037.4,030.3,17.1,0000.0,0013.82,0006.18,0004.86
2023-09-30 15:42:00,SystemResetWarning,0829.1,5.00,000.00,028.8,025.8,000.0,037.4,030.3,17.4,0000.0,0014.45,0006.17,0004.87
2023-09-30 15:43:00,SystemResetWarning,0829.0,5.00,000.00,028.8,026.2,000.0,037.4,030.4,17.6,0000.0,0015.74,0006.16,0004.88
2023-09-30 15:44:00,SystemResetWarning,0829.1,5.00,000.00,028.8,026.5,000.0,037.4,030.4,17.5,0000.0,0016.27,0006.16,0004.89
2023-09-30 15:45:00,SystemResetWarning,0829.1,5.00,000.00,028.8,026.7,000.0,037.4,030.4,17.3,0000.0,0016.67,0006.19,0004.92
2023-09-30 15:46:00,SystemResetWarning,0829.2,5.00,000.00,028.8,026.9,000.0,037.4,030.5,17.2,0000.0,0016.79,0006.21,0004.92
2023-09-30 15:47:00,SystemResetWarning,0829.2,5.00,000.00,028.8,027.1,000.0,037.4,030.5,17.3,0000.0,0017.43,0006.21,0004.93
2023-09-30 15:48:00,SystemResetWarning,0829.2,5.00,000.00,028.8,027.3,000.0,037.4,030.5,17.3,0000.0,0018.89,0006.26,0004.94
2023-09-30 15:49:00,SystemResetWarning,0829.1,5.00,000.00,028.9,027.4,000.0,037.4,030.6,17.4,0000.0,0020.26,0006.34,0004.95
2023-09-30 15:50:00,SystemResetWarning,0829.1,5.00,000.00,028.9,027.5,000.0,037.4,030.6,17.7,0000.0,0019.78,0006.35,0004.94
2023-09-30 15:51:00,SystemResetWarning,0829.1,5.00,000.00,028.9,027.6,000.0,037.4,030.6,17.8,0000.0,0019.63,0006.35,0004.93
2023-09-30 15:52:00,SystemResetWarning,0829.2,4.99,000.00,028.9,027.7,000.0,037.4,030.7,17.6,0000.0,0019.48,0006.38,0004.91
2023-09-30 15:53:00,SystemResetWarning,0829.2,5.00,000.00,029.0,027.7,000.0,037.4,030.7,17.7,0000.0,0018.90,0006.40,0004.91
2023-09-30 15:54:00,SystemResetWarning,0829.2,5.00,000.00,029.0,027.8,000.0,037.4,030.8,17.7,0000.0,0018.16,0006.44,0004.90
2023-09-30 15:55:00,SystemResetWarning,0829.3,5.00,000.00,029.0,027.8,000.0,037.4,030.8,17.9,0000.0,0018.48,0006.47,0004.88
2023-09-30 15:56:00,SystemResetWarning,0829.3,5.00,000.00,029.1,027.9,000.0,037.4,030.8,18.3,0000.0,0018.12,0006.43,0004.87
2023-09-30 15:57:00,SystemResetWarning,0829.2,5.00,000.00,029.1,027.9,000.0,037.5,030.8,18.3,0000.0,0018.29,0006.38,0004.86
2023-09-30 15:58:00,SystemResetWarning,0829.1,5.00,000.00,029.1,028.0,000.0,037.5,030.9,18.4,0000.0,0018.27,0006.37,0004.87
2023-09-30 15:59:00,SystemResetWarning,0829.1,5.00,000.00,029.1,027.8,000.0,037.5,030.9,18.1,0000.0,0017.20,0006.35,0004.88
